Regional Weather Roundup
Issued by NWS

Home | Current Version | Previous Version | Graphics & Text | Print | Product List | Glossary On
Versions: 1 2 3 4 5 6 7 8 9 10 11 12 13 14 15 16 17 18 19 20 21 22 23 24 25 26 27 28 29 30 31 32 33 34 35 36 37 38 39 40 41 42 43 44 45 46 47 48 49 50
000
ASUS43 KMPX 170510
RWRMN
WEATHER ROUNDUP FOR MINNESOTA
NATIONAL WEATHER SERVICE TWIN CITIES/CHANHASSEN MN
1200 AM CDT THU AUG 17 2017


NOTE: "FAIR" INDICATES FEW OR NO CLOUDS BELOW 12,000 FEET WITH NO
SIGNIFICANT WEATHER AND/OR OBSTRUCTIONS TO VISIBILITY. N/A MEANS
CURRENT SKY AND/OR WEATHER CONDITIONS ARE NOT AVAILABLE.

MNZ060>063-068>070-170600-
   Twin Cities Metro

CITY           SKY/WX    TMP DP  RH WIND       PRES   REMARKS
TWIN CITIES    CLOUDY    72  69  90 SE8       29.57F
ST PAUL        CLOUDY    71  71 100 SE8       29.57F
CRYSTAL        CLOUDY    67  63  87 NE5       29.56F
BLAINE         HVY RAIN  70  70 100 E10       29.57F
LAKEVILLE      CLOUDY    70  70 100 S7        29.57F
EDEN PRAIRIE   CLOUDY    72  70  93 E10       29.54F
SOUTH ST PAUL  CLOUDY    71  71 100 SE5       29.57F
LAKE ELMO      LGT RAIN  70  68  94 E9        29.60F
$$
MNZ001>005-007-008-013>017-022>024-027-028-170600-
   Northwest Minnesota

CITY           SKY/WX    TMP DP  RH WIND       PRES   REMARKS
BEMIDJI        RAIN      63  62  98 E3        29.80S
HALLOCK        CLOUDY    59  57  94 NE5       29.85R
ROSEAU         CLOUDY    63  57  82 CALM      29.85R HAZE
WARROAD        CLOUDY    63  59  88 E10       29.85R
THIEF RVR FALL CLOUDY    62  62 100 N10       29.83S FOG
CROOKSTON      CLOUDY    63  63 100 N6        29.82F
FOSSTON        DRIZZLE   63  61  94 N5        29.81S
DETROIT LAKES  RAIN      64  63  94 CALM      29.79F
MOORHEAD       DRIZZLE   64  63  94 N9        29.80S
PARK RAPIDS    RAIN      65  63  93 NE5       29.77F
MAHNOMEN       DRIZZLE   64  64  99 N6        29.79F
$$
MNZ006-009>011-018-025>026-170600-
   North Central Minnesota

CITY           SKY/WX    TMP DP  RH WIND       PRES   REMARKS
BAUDETTE       LGT RAIN  61  61 100 E8        29.83S
FLAG ISLAND    CLOUDY    63  57  82 E5        29.85S
INTL FALLS     LGT RAIN  61  58  90 E7        29.84F
WASKISH        LGT RAIN  63  63 100 E3        29.81F
BIG FORK       LGT RAIN  63  61  94 E3        29.82S
LONGVILLE      RAIN      61  61 100 NE3       29.78F
GRAND RAPIDS   RAIN      59  58  96 VRB6      29.82F FOG
CRANE LAKE     RAIN      57  57 100 CALM      29.86F
ORR            LGT RAIN  57  55  94 CALM      29.81F
COOK           RAIN      57  57 100 CALM      29.83F
WALKER         RAIN      63  62  97 NE6       29.78F
$$
MNZ012-019>021-037-170600-
   Northeast Minnesota

CITY           SKY/WX    TMP DP  RH WIND       PRES   REMARKS
DULUTH         HVY RAIN  60  60 100 E15       29.78F FOG
ELY            LGT RAIN  57  55  94 NE8       29.84F
HIBBING        LGT RAIN  58  57  97 E5        29.80F
EVELETH        LGT RAIN  58  55  89 NE6       29.82F
DULUTH HARBOR  RAIN      63  61  94 NE23G29   29.76F
TWO HARBORS    RAIN      63  57  82 E9        29.79F
SILVER BAY     CLOUDY    61  59  94 NE13G21   29.79F
GRAND MARAIS     N/A     63  57  81 NE12G18   29.85F
G MARAIS ARPRT CLOUDY    57  50  77 E8        29.90F
$$
MNZ029>031-032-039>041-046>048-054>057-064-170600-
   West Central Minnesota

CITY           SKY/WX    TMP DP  RH WIND       PRES   REMARKS
FERGUS FALLS   RAIN      66  66 100 N5        29.75F
WHEATON        LGT RAIN  64  63  94 NW12      29.76F
MORRIS         LGT RAIN  66  64  94 N14       29.70F
ALEXANDRIA     RAIN      65  65 100 N14G20    29.72F
ELBOW LAKE     LGT RAIN  64  64 100 N7        29.74F
WADENA         RAIN      63  63 100 N5        29.75F
GLENWOOD       RAIN      64  63  94 N16       29.68F
APPLETON       RAIN      66  64  94 N10       29.68F
BENSON         LGT RAIN  66  64  94 NE12G22   29.68F
ORTONVILLE     HVY RAIN  66  64  94 MISG      29.72F
MADISON        RAIN      68  68 100 N15       29.68F
WILLMAR        RAIN      66  66 100 N28G35    29.58F
$$
MNZ033>034-036-042>043-049>051-058-059-170600-
   Central Minnesota

CITY           SKY/WX    TMP DP  RH WIND       PRES   REMARKS
ST CLOUD       RAIN      67  67 100 NE13G21   29.60F FOG
SAUK CENTRE    HVY RAIN  64  64  98 N13G20    29.67F
PAYNESVILLE    RAIN      66  65  99 N16G23    29.61F
AITKIN         HVY RAIN  61  57  88 NE7       29.72F
PINE RIVER     RAIN      61  61 100 N7        29.80F
BRAINERD       RAIN      62  61  96 NE12      29.72F FOG
STAPLES        RAIN      63  63 100 N6        29.73F
LONG PRAIRIE   RAIN      63  63 100 NW13      29.70F
LITTLE FALLS   LGT RAIN  63  61  94 N3        29.68F
LITCHFIELD     CLOUDY    70  68  94 NE14G20   29.55F
BUFFALO        CLOUDY    66  63  89 NE10G16   29.58F
MAPLE LAKE     CLOUDY    68  66  95 E13G22    29.58F
HUTCHINSON     DRIZZLE   71  70  97 E7        29.53F
$$
MNZ037-044-045-052-053-170600-
   East Central Minnesota

CITY           SKY/WX    TMP DP  RH WIND       PRES   REMARKS
PRINCETON      RAIN      66  64  94 NE9       29.60F
MORA           RAIN      61  61 100 NE12G17   29.67F
RUSH CITY      RAIN      67  65  94 NE13G21   29.63F
MOOSE LAKE     RAIN      61  59  94 NE6       29.73F
HINCKLEY       HVY RAIN  64  64 100 NE12G17   29.68F
CLOQUET        RAIN      61  57  88 NE9G16    29.76F
MCGREGOR       CLOUDY    61  59  94 NE7       29.75F
$$
MNZ071>073-080-081-089-090-097-098-170600-
   Southwest Minnesota

CITY           SKY/WX    TMP DP  RH WIND       PRES   REMARKS
MONTEVIDEO     LGT RAIN  64  64 100 N15G23    29.65S
GRANITE FALLS  HVY RAIN  66  66  99 NW25G32   29.63S
CANBY          RAIN      66  65  94 NW10G20   29.70F
MARSHALL       LGT RAIN  66  64  94 NW18      29.65F
REDWOOD FALLS  HVY RAIN  67  64  90 NW40G59   29.50F FOG
OLIVIA         DRIZZLE   70  68  94 NE7       29.51S
PIPESTONE      RAIN      64  63  94 NW9       29.72F
WINDOM         PTCLDY    64  63  94 W14G22    29.63S
WORTHINGTON    LGT RAIN  65  64  97 W10       29.70S
JACKSON        CLOUDY    64  63  94 W16G23    29.66S
TRACY          CLOUDY    66  65  97 NW18G26   29.65S
SLAYTON        DRIZZLE   64  60  85 NW12      29.70S
$$
MNZ065>067-074>077-082>085-091>093-170600-
   South Central Minnesota

CITY           SKY/WX    TMP DP  RH WIND       PRES   REMARKS
MANKATO        LGT RAIN  67  66  97 S12       29.54F
NEW ULM        CLOUDY    66  66 100 W9        29.51F
ST JAMES       CLOUDY    66  63  88 SW17G23   29.59R
FAIRMONT       CLOUDY    68  64  87 W14       29.63S
GLENCOE        CLOUDY    71  71  99 SE10      29.52F
FARIBAULT      CLOUDY    70  66  88 S9G17     29.59F
OWATONNA       CLOUDY    70  66  88 S14G21    29.61F
WASECA         CLOUDY    68  63  83 S15G21    29.61S
ALBERT LEA     CLOUDY    72  68  88 SW8G18    29.64
$$
MNZ078>079-086>088-094>096-170600-
   Southeast Minnesota

CITY           SKY/WX    TMP DP  RH WIND       PRES   REMARKS
ROCHESTER      CLOUDY    70  68  93 SW16      29.65F
RED WING       CLOUDY    73  70  88 MISG      29.60F
STANTON        CLOUDY    73  69  88 S9        29.58F
DODGE CENTER   PTCLDY    68  64  88 S12G17    29.64F
WINONA         CLOUDY    72  70  94 SE5       29.63F
AUSTIN         CLOUDY    68  64  88 SW10G16   29.66S
PRESTON        MOCLDY    71  68  91 SW10      29.67F
$$
ABBREVIATIONS USED IN REMARKS
   TC - TEMPERATURES IN CELSIUS
  WCI - WIND CHILL INDEX
   HX - HEAT INDEX
  VSB - VISIBILITY
$$



USA.gov is the U.S. government's official web portal to all federal, state and local government web resources and services.